Location: Domont
(49.0278°N, 2.3264°E)
Time: 17:45:24
(UTC+00:00)

UWE-3 - Pass Details

Date: 06 July 2022
Orbit: 583 x 677 km, 97.7° (Epoch: 10 August)

Event Time Altitude Azimuth Distance (km) Brightness Sun altitude
Rises 02:17:38 0° 26° (NNE) 2,917 ? -11.6°
Reaches altitude 10° 02:20:17 10° 42° (NE) 2,022 ? -11.3°
Maximum altitude 02:23:38 21° 92° (E) 1,447 ? -11.0°
Drops below altitude 10° 02:27:02 10° 141° (SE) 2,054 ? -10.7°
Sets 02:29:44 0° 158° (SSE) 2,975 ? -10.5°
